Skip Page Navigation
NASA JPL Caltech
NASA Logo - Jet Propulsion Laboratory + View the NASA Portal
+ Near-Earth Object (NEO) Program
Search JPL
JPL Home Earth Solar System Stars & Galaxies Technology
JPL Solar System Dynamics
BODIES ORBITS EPHEMERIDES TOOLS PHYSICAL DATA DISCOVERY FAQ SITE MAP
JPL Small-Body Database Browser
Search: [ help ]  
10241 Milicevic (1999 AU6)
Classification: Main-belt Asteroid          SPK-ID: 2010241
Ephemeris | Orbit Diagram | Orbital Elements | Physical Parameters | Discovery Circumstances | Close-Approach Data ]

[ show orbit diagram ]
Orbital Elements at Epoch 2457000.5 (2014-Dec-09.0) TDB
Reference: JPL 12 (heliocentric ecliptic J2000)
 Element Value Uncertainty (1-sigma)   Units 
e .1558678006549922 5.7009e-08  
a 3.053433148945913 2.7888e-08 AU
q 2.577501239572667 1.6914e-07 AU
i 1.606336438463066 5.7502e-06 deg
node 151.7542335375889 0.0002433 deg
peri 189.0964931417512 0.00024472 deg
M 125.3458743912136 2.2917e-05 deg
tp 2456321.939469710729
(2013-Jan-29.43946971)
0.00012315 JED
period 1948.861836024346
5.34
2.6699e-05
7.31e-08
d
yr
n .184723202715281 2.5307e-09 deg/d
Q 3.52936505831916 3.2235e-08 AU
  Orbit Determination Parameters
   # obs. used (total)      1006  
   data-arc span      11837 days (32.41 yr)  
   first obs. used      1981-10-25  
   last obs. used      2014-03-23  
   planetary ephem.      DE431  
   SB-pert. ephem.      SB431-BIG16  
   condition code      0  
   fit RMS      .56275  
   data source      ORB  
   producer      Otto Matic  
   solution date      2014-Jun-09 19:45:57  

Additional Information
 Earth MOID = 1.56954 AU 
 T_jup = 3.217 
[ show covariance matrix ]

Ephemeris | Orbit Diagram | Orbital Elements | Physical Parameters | Discovery Circumstances | Close-Approach Data ]

Physical Parameter Table
Parameter Symbol Value Units Sigma Reference Notes
absolute magnitude H 13.5 mag n/a PDS3 (MPC 33916)  

10241 Milicevi{c´}           Discovered 1999 Jan. 9 by K. Korlevic at Visnjan.
Don Nikola Milicevi{c´} (1887-1963) was last administrator of Blaca Hermitage on Brac, Croatia. In Blaca he observed double stars, searched for comets and novae and published an amateur astronomy newsletter.
NOTE: some special characters may not display properly (any characters within {} are an attempt to place the proper accent above a character)
Reference: 20051215/MPCPages.arcLast Updated: 2006-03-22

[ show close-approach data ]
Alternate Designations
 1999 AU6 = 1981 UX24 = 1996 KB1 = 1997 WB49 
Ephemeris | Orbit Diagram | Orbital Elements | Physical Parameters | Discovery Circumstances | Close-Approach Data ]
ABOUT SSD CREDITS/AWARDS PRIVACY/COPYRIGHT GLOSSARY LINKS
FirstGov 2014-Aug-23 01:34 UT
(server date/time)  
NASA Home Page
Site Manager:   Donald K. Yeomans
Webmaster  Alan B. Chamberlin